Orbital Elements at Epoch 2459000.5 (2020-May-31.0) TDB
Reference: JPL 16 (heliocentric ecliptic J2000)
Element | Value | Uncertainty (1-sigma) | Units |
e | .1780086542443739 | 4.2104e-08 | |
a | 2.580224260501417 | 1.2473e-08 | au |
q | 2.120922012240875 | 1.0869e-07 | au |
i | 3.044968385191386 | 4.6627e-06 | deg |
node | 301.2548967976874 | 8.1419e-05 | deg |
peri | 358.8583494739719 | 8.2289e-05 | deg |
M | 57.04207984993199 | 1.3077e-05 | deg |
tp | 2458760.629157847468 (2019-Oct-04.12915785) | 5.4131e-05 | TDB |
period | 1513.856146236128 4.14 | 1.0977e-05 3.005e-08 | d yr |
n | .2378033083890178 | 1.7243e-09 | deg/d |
Q | 3.039526508761959 | 1.4693e-08 | au |
|
| | Orbit Determination Parameters
Additional Information
|